Find Starlink 30844

NORAD ID: 58403 Int'l Des: 2023-180 Owner: SPXS Country: US Constellation: starlink operational
LEOCIRCULAR

当前视图

正在加载3D地球...

About Starlink 30844

Starlink 30844 (NORAD 58403) is a starlink constellation satellite (v2 mini) launched Nov 22, 2023 by SPXS of US. It operates in LEO, CIRCULAR orbit with a mass of 730.00 kg.

即将过境

Passes for default location (London). Set your location on the main map for personalized predictions.

高度历史

Loading altitude history...

两行轨道根数

1 58403U 23180B 26235.56288643 .00000325 00000-0 21345-4 0 9993
2 58403 43.0019 190.4377 0001298 271.4301 88.6402 15.27576170153028
Epoch: Aug 23, 2026 • Age: 20 hours

当前状态

高度 493.0 km
远地点 / 近地点 N/A
速度 7.62 km/s
星下点 -36.62°S, 55.34°W
发射日期 Nov 22, 2023
运行时间 2.7 years
类型 internet

技术详情

分类 Payload
质量 730.00 kg
干质量 700.00 kg
总质量 730.00 kg
长度 0.30 m
直径 4.10 m
跨度 29.00 m
形状 Box + pan
制造商 SPXS
平台类型 Starlink V2M
阶段状态 In Orbit
所有者/国家 SPXS/US

Most Searched